Morgantown, WV

9:44 PM EST on February 09, 2016 (GMT -0500)
Morgantown Municipal-Hart

Weather History for KMGW - March, 2012

Change the Weather History Date:

Saturday, March 10, 2012

  Actual Average Record
Temperature  
Mean Temperature 36 °F 40 °F  
Max Temperature 48 °F 50 °F 75 °F (1986)
Min Temperature 24 °F 30 °F 4 °F (1996)
Degree Days  
Heating Degree Days 29 25  
Month to date heating degree days 223 264  
Since 1 July heating degree days 3531 4153  
Cooling Degree Days 0 0  
Month to date cooling degree days 0 0  
Year to date cooling degree days 0 0  
Moisture  
Dew Point 13 °F    
Average Humidity 46    
Maximum Humidity 68    
Minimum Humidity 23    
Precipitation  
Precipitation 0.00 in 0.11 in 1.02 in (1992)
Month to date precipitation 0.86 1.09  
Year to date precipitation 6.09 6.50  
Sea Level Pressure  
Sea Level Pressure 30.52 in    
Wind  
Wind Speed 2 mph (NW)    
Max Wind Speed 9 mph    
Max Gust Speed 13 mph    
Visibility 10 miles    
Events      
T = Trace of Precipitation, MM = Missing Value Source: NWS Daily Summary

Daily Weather History Graph

Daily Weather History Graph

Search for Another Location

Airport or City:

Trip Planner

Search our weather history database for the weather conditions in past years. The results will help you decide how hot, cold, wet, or windy it might be!

Date:

Astronomy

Mar. 10, 2012 Rise Set
Actual Time 6:38 AM EST 6:21 PM EST
Civil Twilight 6:11 AM EST 6:48 PM EST
Nautical Twilight 5:40 AM EST 7:20 PM EST
Astronomical Twilight 5:08 AM EST 7:51 PM EST
Moon 9:31 PM EST 7:33 AM EST
Length of Visible Light 12h 37m
Length of Day
11h 43m
Waning Gibbous, 93% of the Moon is Illuminated
Mar 10
Waning Gibbous
Mar 14
Last Quarter
Mar 22
New
Mar 30
First Quarter
Apr 6
Full

Hourly Weather History & Observations

Time (EST) Temp. Windchill Dew Point Humidity Pressure Visibility Wind Dir Wind Speed Gust Speed Precip Events Conditions
12:53 AM 30.0 °F 26.5 °F 15.1 °F 54% 30.47 in 10.0 mi WNW 3.5 mph - N/A   Clear
1:53 AM 30.0 °F 26.5 °F 14.0 °F 51% 30.47 in 10.0 mi WNW 3.5 mph - N/A   Clear
2:53 AM 28.0 °F - 15.1 °F 58% 30.48 in 10.0 mi Calm Calm - N/A   Clear
3:53 AM 28.0 °F 22.8 °F 15.1 °F 58% 30.49 in 10.0 mi NNW 4.6 mph - N/A   Clear
4:53 AM 27.0 °F - 16.0 °F 63% 30.51 in 10.0 mi Calm Calm - N/A   Clear
5:53 AM 25.0 °F 20.7 °F 15.1 °F 66% 30.54 in 10.0 mi North 3.5 mph - N/A   Clear
6:53 AM 25.0 °F 20.7 °F 14.0 °F 63% 30.56 in 10.0 mi North 3.5 mph - N/A   Clear
7:53 AM 27.0 °F - 15.1 °F 61% 30.59 in 10.0 mi Calm Calm - N/A   Clear
8:53 AM 28.9 °F - 12.9 °F 51% 30.61 in 10.0 mi Calm Calm - N/A   Clear
9:53 AM 32.0 °F - 12.9 °F 45% 30.62 in 10.0 mi Calm Calm - N/A   Clear
10:53 AM 34.0 °F - 14.0 °F 44% 30.59 in 10.0 mi Calm Calm - N/A   Clear
11:53 AM 37.9 °F 35.5 °F 10.0 °F 32% 30.56 in 10.0 mi Variable 3.5 mph - N/A   Clear
12:53 PM 41.0 °F 39.0 °F 10.0 °F 28% 30.55 in 10.0 mi Variable 3.5 mph - N/A   Clear
1:53 PM 43.0 °F 40.3 °F 10.0 °F 26% 30.53 in 10.0 mi NW 4.6 mph - N/A   Clear
2:53 PM 43.0 °F - 9.0 °F 25% 30.51 in 10.0 mi Calm Calm - N/A   Clear
3:53 PM 46.0 °F 44.8 °F 10.0 °F 23% 30.51 in 10.0 mi NW 3.5 mph - N/A   Clear
4:53 PM 46.9 °F - 10.0 °F 22% 30.49 in 10.0 mi Calm Calm - N/A   Clear
5:53 PM 46.0 °F - 10.9 °F 24% 30.49 in 10.0 mi Calm Calm - N/A   Clear
6:53 PM 44.1 °F - 10.0 °F 25% 30.48 in 10.0 mi Calm Calm - N/A   Clear
7:53 PM 41.0 °F - 12.9 °F 32% 30.47 in 10.0 mi Calm Calm - N/A   Clear
8:53 PM 39.0 °F - 16.0 °F 39% 30.47 in 10.0 mi Calm Calm - N/A   Clear
9:53 PM 37.9 °F - 14.0 °F 38% 30.47 in 10.0 mi Calm Calm - N/A   Clear
10:53 PM 33.1 °F 30.0 °F 19.0 °F 56% 30.48 in 10.0 mi South 3.5 mph - N/A   Clear
11:53 PM 32.0 °F 28.7 °F 21.0 °F 64% 30.45 in 10.0 mi South 3.5 mph - N/A   Clear